Location: Winnipeg
(49.8830°N, 97.1670°W)
Time: 19:03:59
(UTC-06:00)

ISS - Pass Details

Date: 28 January 2021
Orbit: 417 x 422 km, 51.6° (Epoch: 06 March)

Event Time Altitude Azimuth Distance (km) Brightness Sun altitude
Rises 19:33:51 0° 284° (WNW) 2,376 1.4 -21.9°
Reaches altitude 10° 19:35:58 10° 286° (WNW) 1,511 0.1 -22.3°
Enters shadow 19:38:36 50° 300° (WNW) 546 -3.0 -22.7°
